Simultaneous Nadir Overpasses (SNOs) Predictions

Prediction of SNOs between GOES-16 and NOAA-19 Satellite Orbit:

Table of predicted SNOs for the next 14.0 days since TLE Epoch: 5/7/2018
Index Date Time (GOES-16) GOES-16 Lat,Lon NOAA-19 Lat,Lon Distance(km) Time Diff (sec)
1 05/09/2018 21:10:08 0.00, -75.20 -0.67, -78.24 346.01 80
2 05/10/2018 20:58:34 0.00, -75.21 -0.07, -75.41 23.99 80
3 05/11/2018 20:49:42 0.00, -75.22 0.59, -72.60 298.40 80
4 05/14/2018 09:10:54 -0.00, -75.25 0.58, -77.63 271.82 80
5 05/15/2018 08:56:41 -0.00, -75.26 -0.08, -74.81 50.60 80
6 05/16/2018 08:45:09 -0.00, -75.27 -0.74, -72.00 372.89 80
7 05/18/2018 21:06:39 0.01, -75.28 -0.42, -77.10 208.20 80
8 05/19/2018 20:57:46 0.01, -75.29 0.25, -74.29 114.42 80
9 05/20/2018 20:46:14 0.02, -75.31 0.92, -71.48 437.21 80




NCC Satellite Simultaneous Nadir Overpasses (SNOs) Prediction Service
